Location: Newark
(52.3500°N, 175.9667°E)
Time: 22:09:42
(UTC+00:00)

Transit 4A - Pass Details

Date: 25 April 2021
Orbit: 871 x 974 km, 66.8° (Epoch: 16 May)

Event Time Altitude Azimuth Distance (km) Brightness Sun altitude
Rises 19:08:58 0° 319° (NW) 3,523 10.5 19.0°
Reaches altitude 10° 19:11:31 10° 316° (NW) 2,566 9.9 19.4°
Maximum altitude 19:17:20 59° 239° (WSW) 1,007 8.2 20.3°
Drops below altitude 10° 19:23:01 10° 161° (SSE) 2,515 10.6 21.1°
Sets 19:25:30 0° 157° (SSE) 3,447 11.3 21.5°
